CW4541 Weather Reports


time (UTC)temp
F
wind
direction
speed
knots
gust
knots
rain 1hr
in
rain 24hr
in
rain mn
in
humidity
%
barometer
mb
20260507030607 40 0 0.0 2.6 0.00 0.09 0.09 23 1030.8
20260507020607 43 0 1.7 7.0 0.00 0.09 0.09 17 1030.0
20260507020114 44 0 2.6 7.0 0.00 0.09 0.09 16 1029.9
20260507010610 48 0 2.6 7.0 0.00 0.09 0.09 15 1028.7
20260507010112 49 0 4.3 7.0 0.00 0.09 0.09 14 1028.6
20260507000112 50 0 5.2 10.4 0.00 0.09 0.09 12 1027.8
20260506230607 50 0 5.2 11.3 0.00 0.09 0.09 13 1026.8
20260506230113 50 0 4.3 12.2 0.00 0.09 0.09 14 1026.9
20260506210607 49 0 7.8 15.6 0.00 0.09 0.09 20 1026.2
20260506200115 47 0 7.0 14.8 0.00 0.09 0.09 25 1025.6
20260506190607 46 0 6.1 12.2 0.00 0.09 0.09 33 1024.6
20260506190111 44 0 4.3 13.0 0.00 0.09 0.09 45 1024.8
20260506180607 45 0 4.3 11.3 0.00 0.09 0.09 58 1023.9
20260506180112 45 0 4.3 12.2 0.00 0.09 0.09 56 1023.8
20260506170607 40 0 2.6 7.0 0.00 0.09 0.09 80 1022.8
20260506170111 39 0 2.6 7.0 0.00 0.09 0.09 81 1022.9
20260506160112 36 0 5.2 10.4 0.06 0.09 0.09 81 1021.9
20260506150606 33 0 1.7 6.1 0.04 0.04 0.04 76 1021.7
20260506150112 34 0 1.7 13.0 0.03 0.03 0.03 75 1021.6
20260506140118 38 0 0.0 0.0 0.00 0.00 0.00 63 1020.1
20260506130607 34 0 0.0 0.9 0.00 0.00 0.00 66 1019.0
20260506120607 33 0 0.0 0.0 0.00 0.00 0.00 66 1018.2
20260506120111 33 0 0.0 0.0 0.00 0.00 0.00 66 1018.1
20260506110607 36 0 0.0 1.7 0.00 0.00 0.00 62 1017.8
20260506110111 36 0 0.0 0.9 0.00 0.00 0.00 61 1017.8
20260506100606 39 0 0.9 6.1 0.00 0.00 0.00 58 1017.9
20260506100112 39 0 1.7 6.1 0.00 0.00 0.00 59 1017.8
20260506090607 39 0 0.0 6.1 0.00 0.00 0.00 58 1017.3
20260506090112 39 0 1.7 6.1 0.00 0.00 0.00 59 1017.2
20260506080606 38 0 0.9 2.6 0.00 0.00 0.00 56 1017.3
20260506080111 39 0 0.0 5.2 0.00 0.00 0.00 55 1017.4
20260506070606 40 0 0.9 4.3 0.00 0.00 0.00 52 1017.3
20260506070111 41 0 0.0 4.3 0.00 0.00 0.00 51 1017.3
20260506060607 42 0 0.0 4.3 0.00 0.00 0.00 44 1016.9
20260506050606 44 0 0.9 5.2 0.00 0.00 0.00 39 1016.9
20260506050111 44 0 0.9 5.2 0.00 0.00 0.00 38 1016.8
20260506040606 40 0 0.0 0.0 0.00 0.00 0.00 15 1016.4